Weather History for KCNU - February, 2013

Change the Weather History Date:

Saturday, February 2, 2013

  Actual Average Record
Temperature  
Mean Temperature 40 °F 34 °F  
Max Temperature 57 °F 44 °F 70 °F (1924)
Min Temperature 23 °F 24 °F -9 °F (1917)
Degree Days  
Heating Degree Days 25 31  
Month to date heating degree days 69 62  
Since 1 July heating degree days 2358 2861  
Cooling Degree Days 0 0  
Month to date cooling degree days 0 0  
Year to date cooling degree days 1 0  
Moisture  
Dew Point 26 °F    
Average Humidity 58    
Maximum Humidity 81    
Minimum Humidity 35    
Precipitation  
Precipitation T in 0.05 in 1.00 in (1913)
Month to date precipitation T 0.10  
Year to date precipitation 2.37 1.36  
Sea Level Pressure  
Sea Level Pressure 30.21 in    
Wind  
Wind Speed 7 mph (West)    
Max Wind Speed 18 mph    
Max Gust Speed 24 mph    
Visibility 10 miles    
Events      
T = Trace of Precipitation, MM = Missing Value Source: NWS Daily Summary

Daily Weather History Graph

Daily Weather History Graph

Search for Another Location

Airport or City:

Trip Planner

Search our weather history database for the weather conditions in past years. The results will help you decide how hot, cold, wet, or windy it might be!

Date:

Astronomy

Feb. 02, 2013 Rise Set
Actual Time 7:24 AM CST 5:47 PM CST
Civil Twilight 6:57 AM CST 6:14 PM CST
Nautical Twilight 6:25 AM CST 6:46 PM CST
Astronomical Twilight 5:55 AM CST 7:16 PM CST
Moon No Moon Rise 10:44 AM CST (2/2)
Length of Visible Light 11h 17m
Length of Day
10h 22m
Waning Gibbous, 59% of the Moon is Illuminated
Feb 2
Waning Gibbous
Feb 3
Last Quarter
Feb 10
New
Feb 17
First Quarter
Feb 25
Full

Hourly Weather History & Observations

Time (CST) Temp. Windchill Dew Point Humidity Pressure Visibility Wind Dir Wind Speed Gust Speed Precip Events Conditions
12:52 AM 24.1 °F 18.2 °F 17.1 °F 75% 30.20 in 10.0 mi South 4.6 mph - N/A   Partly Cloudy
1:52 AM 25.0 °F 19.3 °F 19.0 °F 78% 30.19 in 10.0 mi South 4.6 mph - N/A   Mostly Cloudy
2:52 AM 27.0 °F 23.0 °F 19.9 °F 75% 30.18 in 10.0 mi SW 3.5 mph - N/A   Overcast
3:52 AM 28.0 °F - 19.9 °F 72% 30.17 in 10.0 mi Calm Calm - N/A   Overcast
4:52 AM 28.0 °F 24.2 °F 19.9 °F 72% 30.18 in 10.0 mi SW 3.5 mph - N/A   Overcast
5:52 AM 28.9 °F 25.2 °F 21.0 °F 72% 30.20 in 10.0 mi WSW 3.5 mph - 0.00 in   Overcast
6:52 AM 28.0 °F - 21.0 °F 75% 30.20 in 10.0 mi Calm Calm - 0.00 in   Mostly Cloudy
7:52 AM 27.0 °F 23.0 °F 21.9 °F 81% 30.23 in 10.0 mi NNW 3.5 mph - N/A   Overcast
8:52 AM 32.0 °F 28.7 °F 23.0 °F 69% 30.26 in 10.0 mi NW 3.5 mph - N/A   Clear
9:52 AM 37.9 °F - 25.0 °F 60% 30.26 in 10.0 mi Calm Calm - N/A   Clear
10:52 AM 43.0 °F 40.3 °F 28.0 °F 56% 30.27 in 10.0 mi NW 4.6 mph - N/A   Clear
11:52 AM 48.0 °F - 30.9 °F 52% 30.25 in 10.0 mi West 5.8 mph - N/A   Clear
12:52 PM 52.0 °F - 32.0 °F 47% 30.23 in 10.0 mi West 9.2 mph - N/A   Clear
1:52 PM 53.6 °F - 30.2 °F 41% 30.19 in 10.0 mi West 11.5 mph - N/A   Clear
2:52 PM 55.9 °F - 30.0 °F 37% 30.20 in 10.0 mi WNW 13.8 mph - N/A   Clear
3:52 PM 55.9 °F - 28.9 °F 36% 30.19 in 10.0 mi NW 15.0 mph 21.9 mph N/A   Clear
4:52 PM 54.0 °F - 30.0 °F 40% 30.20 in 10.0 mi WNW 11.5 mph - N/A   Clear
5:52 PM 46.0 °F 43.1 °F 28.9 °F 51% 30.19 in 10.0 mi West 5.8 mph - N/A   Clear
6:52 PM 43.0 °F 40.3 °F 28.0 °F 56% 30.20 in 10.0 mi West 4.6 mph - N/A   Clear
7:52 PM 39.9 °F 35.8 °F 27.0 °F 60% 30.22 in 10.0 mi West 5.8 mph - N/A   Clear
8:52 PM 42.1 °F 36.1 °F 28.0 °F 58% 30.20 in 10.0 mi WSW 10.4 mph - N/A   Clear
9:52 PM 42.1 °F 36.1 °F 27.0 °F 55% 30.19 in 10.0 mi WSW 10.4 mph - N/A   Clear
10:52 PM 43.0 °F 36.4 °F 28.0 °F 56% 30.18 in 10.0 mi West 12.7 mph - N/A   Clear
11:52 PM 42.1 °F 36.6 °F 28.0 °F 58% 30.20 in 10.0 mi West 9.2 mph - N/A   Clear